Du Bois, PA

5:48 AM EST on January 19, 2018 (GMT -0500)
Du Bois-Jefferson County

Weather History for KDUJ - November, 2010

Change the Weather History Date:

Thursday, November 4, 2010

  Actual Average Record
Temperature  
Mean Temperature 41 °F 44 °F  
Max Temperature 45 °F 52 °F 76 °F (2015)
Min Temperature 37 °F 35 °F 13 °F (1991)
Degree Days  
Heating Degree Days 24 22  
Month to date heating degree days 85  
Since 1 July heating degree days 828  
Cooling Degree Days 0 0  
Month to date cooling degree days 0  
Year to date cooling degree days 362  
Moisture  
Dew Point 36 °F    
Average Humidity 86    
Maximum Humidity 100    
Minimum Humidity 67    
Precipitation  
Precipitation 0.07 in 0.12 in 0.88 in (1982)
Month to date precipitation 0.48  
Year to date precipitation 36.87  
Sea Level Pressure  
Sea Level Pressure 29.63 in    
Wind  
Wind Speed 3 mph (NW)    
Max Wind Speed 7 mph    
Max Gust Speed -    
Visibility 9 miles    
Events Rain    
T = Trace of Precipitation, MM = Missing Value Source: NWS Daily Summary

Daily Weather History Graph

Daily Weather History Graph

Search for Another Location

Airport or City:

Trip Planner

Search our weather history database for the weather conditions in past years. The results will help you decide how hot, cold, wet, or windy it might be!

Date:

Astronomy

Nov. 04, 2010 Rise Set
Actual Time 7:50 AM EDT 6:07 PM EDT
Civil Twilight 7:21 AM EDT 6:36 PM EDT
Nautical Twilight 6:48 AM EDT 7:09 PM EDT
Astronomical Twilight 6:16 AM EDT 7:41 PM EDT
Moon 5:59 AM EDT (11/4) 4:51 PM EDT (11/4)
Length of Visible Light 11h 14m
Length of Day
10h 17m
Waning Crescent, 3% of the Moon is Illuminated
Nov 4
Waning Crescent
Nov 6
New
Nov 13
First Quarter
Nov 21
Full
Nov 28
Last Quarter

Hourly Weather History & Observations

Time (EDT) Temp. Windchill Dew Point Humidity Pressure Visibility Wind Dir Wind Speed Gust Speed Precip Events Conditions
12:56 AM 42.1 °F - 32.0 °F 67% 29.80 in 10.0 mi Calm Calm - N/A   Mostly Cloudy
1:56 AM 41.0 °F - 32.0 °F 70% 29.78 in 10.0 mi Calm Calm - N/A   Overcast
2:56 AM 39.9 °F 35.8 °F 30.9 °F 70% 29.76 in 10.0 mi North 5.8 mph - N/A   Overcast
3:56 AM 39.9 °F 36.7 °F 30.9 °F 70% 29.75 in 10.0 mi NE 4.6 mph - N/A   Mostly Cloudy
4:56 AM 39.9 °F 37.8 °F 32.0 °F 73% 29.73 in 10.0 mi East 3.5 mph - N/A   Overcast
5:56 AM 39.0 °F 34.8 °F 33.1 °F 79% 29.71 in 10.0 mi East 5.8 mph - 0.00 in Rain Light Rain
6:56 AM 37.9 °F 34.4 °F 35.1 °F 89% 29.68 in 10.0 mi North 4.6 mph - 0.00 in   Overcast
7:21 AM 39.2 °F 37.0 °F 35.6 °F 87% 29.67 in 10.0 mi NNE 3.5 mph - N/A   Overcast
7:56 AM 39.0 °F - 35.1 °F 86% 29.69 in 10.0 mi Calm Calm - N/A   Overcast
8:32 AM 37.4 °F 33.8 °F 35.6 °F 93% 29.67 in 10.0 mi East 4.6 mph - N/A   Overcast
8:56 AM 39.0 °F - 35.1 °F 86% 29.70 in 10.0 mi Calm Calm - N/A   Mostly Cloudy
9:56 AM 39.9 °F 37.8 °F 37.0 °F 89% 29.69 in 10.0 mi East 3.5 mph - N/A   Mostly Cloudy
10:56 AM 42.1 °F - 37.9 °F 85% 29.69 in 10.0 mi Calm Calm - N/A   Partly Cloudy
11:30 AM 42.8 °F - 37.4 °F 81% 29.65 in 10.0 mi Calm Calm - N/A   Mostly Cloudy
11:37 AM 44.6 °F 43.1 °F 37.4 °F 76% 29.64 in 10.0 mi Variable 3.5 mph - N/A   Mostly Cloudy
11:56 AM 45.0 °F - 39.0 °F 80% 29.66 in 10.0 mi Calm Calm - N/A   Mostly Cloudy
12:19 PM 44.6 °F - 37.4 °F 76% 29.63 in 10.0 mi Calm Calm - N/A   Mostly Cloudy
12:56 PM 45.0 °F 43.5 °F 37.0 °F 74% 29.63 in 10.0 mi West 3.5 mph - N/A   Overcast
1:42 PM 44.6 °F 41.4 °F 37.4 °F 76% 29.58 in 10.0 mi WNW 5.8 mph - 0.00 in Rain Light Rain
1:56 PM 45.0 °F 42.6 °F 37.0 °F 74% 29.60 in 10.0 mi NW 4.6 mph - 0.00 in   Overcast
2:56 PM 45.0 °F 41.8 °F 37.0 °F 74% 29.57 in 10.0 mi NW 5.8 mph - 0.00 in Rain Light Rain
3:56 PM 44.1 °F 42.5 °F 37.9 °F 79% 29.57 in 10.0 mi West 3.5 mph - 0.00 in Rain Light Rain
4:03 PM 44.6 °F 43.1 °F 37.4 °F 76% 29.55 in 10.0 mi WNW 3.5 mph - 0.00 in Rain Light Rain
4:56 PM 41.0 °F 37.1 °F 37.0 °F 86% 29.58 in 6.0 mi NW 5.8 mph - 0.02 in Rain Light Rain
5:28 PM 39.2 °F 35.0 °F 37.4 °F 93% 29.56 in 6.0 mi NW 5.8 mph - 0.03 in Rain Light Rain
5:56 PM 39.0 °F 34.0 °F 37.0 °F 93% 29.59 in 6.0 mi WNW 6.9 mph - 0.04 in Rain Light Rain
6:16 PM 39.2 °F 35.9 °F 37.4 °F 93% 29.57 in 8.0 mi WNW 4.6 mph - 0.00 in Rain Light Rain
6:56 PM 39.0 °F 34.8 °F 37.0 °F 93% 29.59 in 10.0 mi NW 5.8 mph - 0.01 in Rain Light Rain
7:24 PM 37.4 °F 33.8 °F 37.4 °F 100% 29.57 in 10.0 mi NW 4.6 mph - 0.00 in   Overcast
7:34 PM 37.4 °F 32.8 °F 37.4 °F 100% 29.56 in 10.0 mi NW 5.8 mph - 0.00 in   Overcast
7:56 PM 37.9 °F 33.5 °F 37.0 °F 97% 29.60 in 10.0 mi NW 5.8 mph - 0.00 in   Overcast
8:30 PM 37.4 °F 32.8 °F 37.4 °F 100% 29.57 in 9.0 mi WNW 5.8 mph - N/A   Overcast
8:56 PM 37.9 °F 33.5 °F 37.0 °F 97% 29.60 in 7.0 mi WNW 5.8 mph - N/A   Overcast
9:03 PM 37.4 °F 33.8 °F 37.4 °F 100% 29.56 in 7.0 mi WNW 4.6 mph - N/A   Overcast
9:27 PM 37.4 °F 34.9 °F 37.4 °F 100% 29.57 in 6.0 mi West 3.5 mph - N/A   Overcast
9:56 PM 37.9 °F 34.4 °F 37.0 °F 97% 29.59 in 6.0 mi NW 4.6 mph - N/A   Overcast
10:48 PM 37.4 °F - 37.4 °F 100% 29.55 in 5.0 mi Calm Calm - N/A   Overcast
10:56 PM 37.9 °F - 37.0 °F 97% 29.58 in 6.0 mi Calm Calm - N/A   Overcast
11:16 PM 37.4 °F 33.8 °F 37.4 °F 100% 29.54 in 5.0 mi WNW 4.6 mph - N/A   Overcast
11:56 PM 37.9 °F - 37.0 °F 97% 29.54 in 6.0 mi Calm Calm - N/A   Overcast